ARIANE 2 DEB

基本信息
目录编号:
28563
目录名称:
ARIANE 2 DEB
国际标识:
1988-098L
轨道中心:
EARTH
物体状态:
在轨
发射日期:
1988-10-28 UTC
轨道信息
数据来源: 国际轨道数据
星历时间: 2026-07-14T06:11:01+0800
半长轴: 25985.512km
偏心率: 0.724074
轨道倾角: 3.760°
近地点辐角: 5.495°
升交点赤经: 83.769°
平近点角: 280.938°
近地点: 791.941km
远地点: 38422.809km
周期: 694.795分钟
每日圈数: 2.072554
详细信息
发射场:
FRGUI
轨道高度:
LEO
数据来源:
AOE Integration Group
参考系:
TEME
时间系统:
UTC
历元类型:
SGP4
2D轨道图
3D轨道图
轨道高度分析图
轨道倾角分析图
轨道综合分析图
查看轨道综合分析图